FW7716 Weather Reports


time (UTC)temp
F
wind
direction
speed
knots
gust
knots
rain 1hr
in
rain 24hr
in
rain mn
in
humidity
%
barometer
mb
20260504231540 79 19 4.3 10.4 0.00 0.00 0.00 30 1008.0
20260504230037 80 112 0.0 8.7 0.00 0.00 0.00 32 1008.1
20260504224542 77 40 2.6 7.8 0.00 0.00 0.00 32 1008.2
20260504223059 77 118 0.9 9.6 0.00 0.00 0.00 31 1008.1
20260504221540 77 327 2.6 7.8 0.00 0.00 0.00 31 1008.1
20260504220039 78 54 2.6 7.0 0.00 0.00 0.00 32 1008.1
20260504214535 78 264 0.9 5.2 0.00 0.00 0.00 32 1008.1
20260504213049 80 42 1.7 8.7 0.00 0.00 0.00 30 1008.1
20260504211542 81 113 2.6 9.6 0.00 0.00 0.00 30 1008.2
20260504210044 79 38 1.7 11.3 0.00 0.00 0.00 32 1008.3
20260504204545 79 30 3.5 11.3 0.00 0.00 0.00 32 1008.5
20260504203041 79 38 2.6 10.4 0.00 0.00 0.00 32 1008.4
20260504201535 78 319 2.6 8.7 0.00 0.00 0.00 32 1008.6
20260504200044 78 36 1.7 7.8 0.00 0.00 0.00 31 1008.7
20260504194539 78 24 3.5 8.7 0.00 0.00 0.00 30 1008.8
20260504193039 77 100 2.6 7.0 0.00 0.00 0.00 31 1008.8
20260504191538 76 71 2.6 7.8 0.00 0.00 0.00 36 1008.9
20260504190036 76 344 4.3 10.4 0.00 0.00 0.00 36 1009.1
20260504184536 75 310 2.6 13.0 0.00 0.00 0.00 36 1009.2
20260504183040 75 46 4.3 8.7 0.00 0.00 0.00 34 1009.3
20260504181545 75 336 1.7 8.7 0.00 0.00 0.00 36 1009.2
20260504180039 73 314 1.7 8.7 0.00 0.00 0.00 36 1009.4
20260504174535 73 29 2.6 6.1 0.00 0.00 0.00 37 1009.5
20260504173041 70 66 0.9 4.3 0.00 0.00 0.00 45 1009.5
20260504171547 68 216 0.0 4.3 0.00 0.00 0.00 51 1009.5
20260504081539 51 0 0.0 0.0 0.00 0.00 0.00 76 1008.4
20260504044542 59 0 0.0 0.0 0.00 0.00 0.00 62 1008.5
20260504043043 60 0 0.0 0.0 0.00 0.00 0.00 63 1008.6
20260504041541 61 0 0.0 0.0 0.00 0.00 0.00 61 1008.5
20260504040059 63 0 0.0 0.0 0.00 0.00 0.00 60 1008.5
20260504034534 64 43 0.0 0.9 0.00 0.00 0.00 58 1008.4
20260504033034 66 0 0.0 0.9 0.00 0.00 0.00 56 1008.4
20260504031541 68 0 0.0 0.0 0.00 0.00 0.00 54 1008.4
20260504030058 71 0 0.0 0.0 0.00 0.00 0.00 46 1008.3
20260504024538 78 0 0.0 0.0 0.00 0.00 0.00 35 1008.4
20260504023037 81 0 0.0 0.0 0.00 0.00 0.00 32 1008.3
20260504021535 81 0 0.0 1.7 0.00 0.00 0.00 31 1008.4
20260504020042 82 172 0.0 2.6 0.00 0.00 0.00 30 1008.5
20260504014542 81 163 0.9 4.3 0.00 0.00 0.00 29 1008.5
20260504013047 81 161 1.7 3.5 0.00 0.00 0.00 28 1008.7
20260504011537 80 153 0.9 3.5 0.00 0.00 0.00 30 1008.7
20260504010033 80 167 1.7 5.2 0.00 0.00 0.00 30 1008.9
20260504004533 81 167 1.7 5.2 0.00 0.00 0.00 27 1008.9
20260504003042 81 0 0.0 2.6 0.00 0.00 0.00 28 1009.1
20260504001552 82 165 2.6 6.1 0.00 0.00 0.00 28 1009.2
20260504000039 82 0 0.0 2.6 0.00 0.00 0.00 28 1009.2
20260503234534 83 128 1.7 4.3 0.00 0.00 0.00 28 1009.3
20260503233043 82 272 0.0 8.7 0.00 0.00 0.00 26 1009.5